Location: Unspecified
(51.5147°N, 7.4673°E)
Time: 03:44:29
(UTC+01:00)

A-11 Canister half - Pass Details

Date: 22 February 2026
Orbit: 1512 x 1687 km, 47.2° (Epoch: 7 March)

Event Time Altitude Azimuth Distance (km) Brightness Sun altitude
Rises 04:36:24 0° 283° (WNW) 4,853 - -27.5°
Reaches altitude 10° 04:42:53 10° 253° (WSW) 3,813 - -26.5°
Maximum altitude 04:45:15 11° 238° (WSW) 3,702 - -26.2°
Drops below altitude 10° 04:47:38 10° 223° (SW) 3,773 - -25.8°
Exits shadow 04:53:52 - 193° (SSW) 4,685 11.3 -24.9°
Sets 04:53:58 0° 192° (SSW) 4,705 11.3 -24.9°
